| time (UTC) | temp C | wind direction | speed KPH | gust KPH | rain 1hr cm | rain 24hr cm | rain mn cm | humidity % | barometer mb |
| 20260509213016 | 31 | 195 | 0.0 | 0.0 | 0.00 | 0.03 | 0.03 | 51 | 1004.7 |
| 20260509211512 | 31 | 197 | 0.0 | 0.0 | 0.00 | 0.03 | 0.03 | 50 | 1005.0 |
| 20260509210017 | 31 | 198 | 0.0 | 3.2 | 0.00 | 0.03 | 0.03 | 50 | 1005.3 |
| 20260509204509 | 31 | 146 | 0.0 | 1.6 | 0.00 | 0.03 | 0.03 | 50 | 1005.6 |
| 20260509203007 | 31 | 204 | 0.0 | 0.0 | 0.00 | 0.03 | 0.03 | 52 | 1005.8 |
| 20260509201505 | 30 | 227 | 0.0 | 0.0 | 0.00 | 0.03 | 0.03 | 53 | 1006.0 |
| 20260509200003 | 30 | 225 | 0.0 | 0.0 | 0.00 | 0.03 | 0.03 | 53 | 1006.2 |
| 20260509194600 | 30 | 173 | 0.0 | 0.0 | 0.00 | 0.03 | 0.03 | 50 | 1006.5 |
| 20260509193115 | 30 | 148 | 0.0 | 0.0 | 0.00 | 0.03 | 0.03 | 51 | 1006.8 |
| 20260509191557 | 30 | 259 | 0.0 | 0.0 | 0.00 | 0.03 | 0.03 | 54 | 1007.0 |
| 20260509190057 | 29 | 257 | 0.0 | 0.0 | 0.00 | 0.03 | 0.03 | 54 | 1007.1 |
| 20260509184607 | 29 | 191 | 0.0 | 0.0 | 0.00 | 0.03 | 0.03 | 57 | 1007.3 |
| 20260509183052 | 29 | 192 | 0.0 | 0.0 | 0.00 | 0.03 | 0.03 | 57 | 1007.5 |
| 20260509181552 | 28 | 246 | 0.0 | 0.0 | 0.00 | 0.03 | 0.03 | 54 | 1007.7 |
| 20260509180048 | 28 | 259 | 0.0 | 0.0 | 0.00 | 0.03 | 0.03 | 55 | 1007.9 |
| 20260509174546 | 28 | 197 | 0.0 | 0.0 | 0.00 | 0.03 | 0.03 | 57 | 1008.1 |
| 20260509173054 | 28 | 307 | 0.0 | 0.0 | 0.00 | 0.03 | 0.03 | 54 | 1008.3 |
| 20260509171548 | 28 | 307 | 0.0 | 0.0 | 0.00 | 0.03 | 0.03 | 54 | 1008.3 |
| 20260509170040 | 27 | 307 | 0.0 | 0.0 | 0.00 | 0.03 | 0.03 | 55 | 1008.4 |
| 20260509164538 | 27 | 307 | 0.0 | 0.0 | 0.00 | 0.03 | 0.03 | 57 | 1008.4 |
| 20260509163033 | 26 | 307 | 0.0 | 0.0 | 0.00 | 0.03 | 0.03 | 58 | 1008.8 |
| 20260509161534 | 26 | 307 | 0.0 | 0.0 | 0.00 | 0.03 | 0.03 | 59 | 1008.9 |
| 20260509160029 | 25 | 307 | 0.0 | 0.0 | 0.00 | 0.03 | 0.03 | 60 | 1008.9 |
| 20260509154529 | 25 | 306 | 0.0 | 0.0 | 0.00 | 0.03 | 0.03 | 62 | 1008.8 |
| 20260509153025 | 25 | 305 | 0.0 | 0.0 | 0.00 | 0.03 | 0.03 | 65 | 1008.7 |
| 20260509151522 | 25 | 304 | 0.0 | 0.0 | 0.00 | 0.03 | 0.03 | 67 | 1008.7 |
| 20260509150018 | 23 | 303 | 0.0 | 0.0 | 0.00 | 0.03 | 0.03 | 70 | 1008.4 |
| 20260509144518 | 23 | 303 | 0.0 | 0.0 | 0.00 | 0.03 | 0.03 | 71 | 1008.3 |
| 20260509143022 | 22 | 78 | 0.0 | 0.0 | 0.00 | 0.03 | 0.03 | 75 | 1008.3 |
| 20260509141522 | 22 | 78 | 0.0 | 0.0 | 0.00 | 0.03 | 0.03 | 71 | 1008.3 |
| 20260509140013 | 23 | 78 | 0.0 | 0.0 | 0.00 | 0.03 | 0.03 | 70 | 1008.3 |
| 20260509134510 | 22 | 78 | 0.0 | 0.0 | 0.00 | 0.03 | 0.03 | 75 | 1008.3 |
| 20260509133006 | 21 | 78 | 0.0 | 0.0 | 0.00 | 0.03 | 0.03 | 81 | 1008.3 |
| 20260509131506 | 19 | 83 | 0.0 | 0.0 | 0.00 | 0.03 | 0.03 | 89 | 1008.2 |
| 20260509130002 | 18 | 82 | 0.0 | 0.0 | 0.00 | 0.03 | 0.03 | 89 | 1008.0 |
| 20260509124503 | 18 | 82 | 0.0 | 0.0 | 0.00 | 0.03 | 0.03 | 88 | 1007.8 |
| 20260509123002 | 18 | 82 | 0.0 | 0.0 | 0.00 | 0.03 | 0.03 | 86 | 1007.4 |
| 20260509121606 | 18 | 82 | 0.0 | 0.0 | 0.00 | 0.03 | 0.03 | 89 | 1007.1 |
| 20260509120108 | 17 | 190 | 0.0 | 0.0 | 0.00 | 0.03 | 0.03 | 88 | 1005.0 |
| 20260509114603 | 17 | 172 | 0.0 | 0.0 | 0.00 | 0.03 | 0.03 | 87 | 1006.4 |
| 20260509113056 | 17 | 172 | 0.0 | 1.6 | 0.00 | 0.03 | 0.03 | 87 | 1006.2 |
| 20260509111554 | 18 | 72 | 0.0 | 0.0 | 0.00 | 0.03 | 0.03 | 85 | 1006.8 |
| 20260509110053 | 18 | 72 | 0.0 | 0.0 | 0.00 | 0.03 | 0.03 | 83 | 1006.9 |
| 20260509104551 | 19 | 71 | 0.0 | 1.6 | 0.00 | 0.03 | 0.03 | 84 | 1006.8 |
| 20260509103049 | 18 | 86 | 0.0 | 1.6 | 0.00 | 0.03 | 0.03 | 88 | 1007.1 |
| 20260509101550 | 18 | 62 | 0.0 | 3.2 | 0.00 | 0.03 | 0.03 | 88 | 1008.3 |
| 20260509100054 | 18 | 327 | 0.0 | 0.0 | 0.00 | 0.03 | 0.03 | 91 | 1009.2 |
| 20260509094550 | 18 | 40 | 0.0 | 4.8 | 0.00 | 0.03 | 0.03 | 94 | 1010.0 |
| 20260509093044 | 18 | 346 | 0.0 | 1.6 | 0.00 | 0.03 | 0.03 | 96 | 1010.0 |
| 20260509091542 | 18 | 90 | 0.0 | 0.0 | 0.00 | 0.03 | 0.03 | 96 | 1009.8 |
| 20260509090040 | 18 | 91 | 0.0 | 0.0 | 0.00 | 0.03 | 0.03 | 96 | 1009.1 |
| 20260509084539 | 18 | 91 | 0.0 | 0.0 | 0.00 | 0.03 | 0.03 | 96 | 1009.0 |
| 20260509083041 | 18 | 91 | 0.0 | 0.0 | 0.00 | 0.03 | 0.03 | 96 | 1008.6 |
| 20260509081543 | 18 | 91 | 0.0 | 0.0 | 0.00 | 0.03 | 0.03 | 96 | 1008.7 |
| 20260509080037 | 18 | 91 | 0.0 | 0.0 | 0.00 | 0.03 | 0.03 | 95 | 1008.2 |
| 20260509074537 | 18 | 91 | 0.0 | 0.0 | 0.00 | 0.03 | 0.03 | 95 | 1008.1 |
| 20260509073033 | 19 | 91 | 0.0 | 0.0 | 0.00 | 0.03 | 0.03 | 96 | 1008.1 |
| 20260509071535 | 19 | 91 | 0.0 | 0.0 | 0.00 | 0.03 | 0.03 | 96 | 1008.0 |
| 20260509070030 | 18 | 91 | 0.0 | 0.0 | 0.03 | 0.03 | 0.03 | 96 | 1008.0 |
| 20260509064530 | 17 | 91 | 0.0 | 0.0 | 0.03 | 0.03 | 0.03 | 95 | 1008.2 |
| 20260509063030 | 17 | 91 | 0.0 | 0.0 | 0.03 | 0.03 | 0.03 | 95 | 1008.3 |
| 20260509061528 | 18 | 91 | 0.0 | 0.0 | 0.03 | 0.03 | 0.03 | 94 | 1008.2 |
| 20260509060029 | 18 | 91 | 0.0 | 0.0 | 0.00 | 0.00 | 0.00 | 95 | 1008.1 |
| 20260509054525 | 18 | 91 | 0.0 | 0.0 | 0.00 | 0.00 | 0.00 | 95 | 1007.9 |
| 20260509053028 | 18 | 91 | 0.0 | 0.0 | 0.00 | 0.00 | 0.00 | 96 | 1007.5 |
| 20260509051528 | 17 | 91 | 0.0 | 0.0 | 0.00 | 0.00 | 0.00 | 94 | 1007.6 |
| 20260509050021 | 17 | 91 | 0.0 | 0.0 | 0.00 | 0.00 | 0.00 | 94 | 1008.0 |
| 20260509044515 | 17 | 91 | 0.0 | 0.0 | 0.00 | 0.00 | 0.00 | 94 | 1007.7 |
| 20260509043015 | 17 | 91 | 0.0 | 0.0 | 0.00 | 0.00 | 0.00 | 94 | 1007.7 |
| 20260509041514 | 17 | 91 | 0.0 | 0.0 | 0.00 | 0.00 | 0.00 | 93 | 1007.5 |
| 20260509040016 | 17 | 91 | 0.0 | 0.0 | 0.00 | 0.00 | 0.00 | 93 | 1007.6 |
| 20260509034515 | 17 | 91 | 0.0 | 0.0 | 0.00 | 0.00 | 0.00 | 93 | 1007.4 |
| 20260509033013 | 17 | 91 | 0.0 | 0.0 | 0.00 | 0.00 | 0.00 | 92 | 1007.5 |
| 20260509031514 | 18 | 91 | 0.0 | 0.0 | 0.00 | 0.00 | 0.00 | 92 | 1007.2 |
| 20260509030011 | 18 | 91 | 0.0 | 0.0 | 0.00 | 0.00 | 0.00 | 91 | 1006.9 |
| 20260509024511 | 18 | 91 | 0.0 | 0.0 | 0.00 | 0.00 | 0.00 | 91 | 1006.5 |
| 20260509023015 | 19 | 91 | 0.0 | 0.0 | 0.00 | 0.00 | 0.00 | 90 | 1006.5 |
| 20260509021515 | 20 | 91 | 0.0 | 0.0 | 0.00 | 0.00 | 0.00 | 88 | 1006.2 |
| 20260509020009 | 20 | 91 | 0.0 | 0.0 | 0.00 | 0.00 | 0.00 | 88 | 1006.1 |
| 20260509014510 | 21 | 91 | 0.0 | 0.0 | 0.00 | 0.00 | 0.00 | 87 | 1006.0 |
| 20260509013028 | 21 | 91 | 0.0 | 0.0 | 0.00 | 0.00 | 0.00 | 86 | 1005.8 |
| 20260509011509 | 22 | 91 | 0.0 | 0.0 | 0.00 | 0.00 | 0.00 | 84 | 1005.7 |
| 20260509010007 | 22 | 91 | 0.0 | 0.0 | 0.00 | 0.00 | 0.00 | 83 | 1005.8 |
| 20260509004507 | 22 | 91 | 0.0 | 0.0 | 0.00 | 0.00 | 0.00 | 83 | 1005.9 |
| 20260509003007 | 22 | 91 | 0.0 | 0.0 | 0.00 | 0.00 | 0.00 | 82 | 1006.1 |
| 20260509001507 | 23 | 89 | 0.0 | 0.0 | 0.00 | 0.00 | 0.00 | 81 | 1006.0 |
| 20260509000007 | 23 | 88 | 0.0 | 0.0 | 0.00 | 0.00 | 0.00 | 80 | 1005.9 |
| 20260508234506 | 23 | 91 | 0.0 | 0.0 | 0.00 | 0.08 | 0.00 | 79 | 1005.8 |
| 20260508233004 | 23 | 179 | 0.0 | 0.0 | 0.00 | 0.08 | 0.00 | 79 | 1005.7 |
| 20260508231503 | 24 | 182 | 0.0 | 0.0 | 0.00 | 0.08 | 0.00 | 77 | 1005.7 |
| 20260508230001 | 24 | 129 | 0.0 | 0.0 | 0.00 | 0.08 | 0.00 | 77 | 1005.7 |
| 20260508224609 | 24 | 90 | 0.0 | 0.0 | 0.00 | 0.13 | 0.00 | 78 | 1006.0 |
| 20260508223058 | 24 | 151 | 0.0 | 1.6 | 0.00 | 0.13 | 0.00 | 78 | 1006.0 |
| 20260508221604 | 24 | 157 | 0.0 | 0.0 | 0.00 | 0.13 | 0.00 | 77 | 1006.1 |
| 20260508220057 | 23 | 101 | 0.0 | 0.0 | 0.00 | 0.13 | 0.00 | 78 | 1006.2 |
| 20260508214554 | 23 | 96 | 0.0 | 0.0 | 0.00 | 0.23 | 0.00 | 78 | 1006.4 |
| 20260508213111 | 23 | 169 | 0.0 | 0.0 | 0.00 | 0.23 | 0.00 | 78 | 1006.5 |